Regional Weather Roundup
Issued by NWS

Home | Current Version | Previous Version | Text Only | Print | Product List | Glossary On
Versions: 1 2 3 4 5 6 7 8 9 10 11 12 13 14 15 16 17 18 19 20 21 22 23 24 25 26 27 28 29 30 31 32 33 34 35 36 37 38 39 40 41 42 43 44 45 46 47 48 49 50
000
ASUS44 KEWX 281911
RWRTX
SOUTH TEXAS REGIONAL WEATHER ROUNDUP
NATIONAL WEATHER SERVICE AUSTIN/SAN ANTONIO TX
200 PM CDT FRI APR 28 2017

NOTE: "FAIR" INDICATED FEW OR NO CLOUDS BELOW 12,000 FEET WITH NO
SIGNIFICANT WEATHER AND/OR OBSTRUCTIONS TO VISIBILITY.

* - THESE STATIONS ARE NOT NWS OR FAA STATIONS...AND ARE NOT SUBJECT
    TO NWS AND FAA QUALITY CONTROL.

TXZ171-172-183>190-282000-
TEXAS HILL COUNTRY AND EDWARDS PLATEAU

CITY           SKY/WX    TMP DP  RH WIND       PRES   REMARKS
JUNCTION       MOSUNNY   90  64  42 S10       29.60F HX  91
*LLANO         SUNNY     91  68  46 S7        29.62F HX  95
BURNET         SUNNY     87  66  49 S14G22    29.63F
*HORSESHOE BAY SUNNY     88  68  51 S10G16    29.61F HX  91
*KERRVILLE     CLOUDY    82  71  71 S12       29.64F
*FREDERICKSBRG MOSUNNY   84  65  52 S9        29.63F
*ROCKSPRINGS   MOSUNNY   82  64  54 CALM      29.67F
*BOERNE STAGE  MOSUNNY   81  66  61 S7        29.64F
*CASTROVILLE   MOSUNNY   88  66  48 S8G16     29.61F HX  90
HONDO          CLOUDY    81  70  69 S7        29.62F
*UVALDE        PTSUNNY   78  70  74 CALM      29.62F
DEL RIO        SUNNY     86  68  54 VRB6      29.57F
LAUGHLIN AFB   MOSUNNY   85  69  57 E6        29.58F
CARRIZO SPRGS  CLOUDY    81  70  69 CALM      29.58F
*EAGLE PASS    NOT AVBL
$$

TXZ173-191>194-202-209-217>225-228-282000-
CENTRAL AND SOUTH CENTRAL TEXAS

CITY           SKY/WX    TMP DP  RH WIND       PRES   REMARKS
GEORGETOWN     SUNNY     90  66  45 S14G20    29.60F HX  92
AUSTIN/BERGSTM MOSUNNY   91  69  48 S16       29.59F HX  96
AUSTIN/MABRY   MOSUNNY   91  70  49 S9        29.61F HX  96
*AUSTIN/EXEC   SUNNY     88  68  51 S9G20     29.61F HX  91
*LAGO VISTA    MOSUNNY   87  67  50 SE10G22   29.63F HX  90
SAN MARCOS     MOSUNNY   88  70  55 S13G24    29.61F HX  92
NEW BRAUNFELS  MOSUNNY   90  69  50 S17G24    29.58F HX  94
RANDOLPH AFB   MOSUNNY   89  69  50 S15G25    29.59F HX  93
PT SAN ANTONIO MOSUNNY   88  69  53 SE14      29.57F HX  92
SAN ANTONIO    MOSUNNY   87  68  52 S13G20    29.60F HX  90
STINSON FIELD  SUNNY     91  68  46 S9        29.57F HX  95
*LA GRANGE     SUNNY     90  75  61 S14       29.59F HX  99
*GIDDINGS      SUNNY     87  69  55 S12G22    29.62F HX  91
*GONZALES      SUNNY     92  72  53 S15G23    29.59F HX  99
$$

TXZ163>164-176>182-195>201-210>213-226-227-235-282000-
SOUTHEAST TEXAS

CITY           SKY/WX    TMP DP  RH WIND       PRES   REMARKS
COLLEGE STN    SUNNY     90  71  53 S24G31    29.61F HX  96
*BRYAN         SUNNY     89  71  55 S13G25    29.63F HX  95
*CALDWELL      NOT AVBL
*CROCKETT      PTSUNNY   88  72  58 S14G22    29.68F HX  94
*BRENHAM       SUNNY     90  72  56 S13G28    29.63F HX  97
HUNTSVILLE     SUNNY     91  69  48 S13G31    29.65F HX  96
CONROE         MOSUNNY   89  72  56 S22G32    29.67F HX  96
HOUSTON BUSH   PTSUNNY   89  72  56 S21G30    29.67F HX  96
HOUSTON HOBBY  MOSUNNY   85  74  69 S18G29    29.68F HX  92
*HOUSTON SW AP MOSUNNY   88  73  62 S8G17     29.68F HX  96
PEARLAND       PTSUNNY   87  73  62 S17G26    29.70F HX  94
HOUSTON HOOKS  MOSUNNY   89  71  55 S13G25    29.66F HX  95
ELLINGTON FLD  PTSUNNY   88  73  62 S15G23    29.71F HX  96
SUGAR LAND     MOSUNNY   89  74  60 S17G26    29.66F HX  98
*HOUSTON EXEC  SUNNY     90  73  58 S24G30    29.66F HX  98
*CLEVELAND MUN PTSUNNY   87  74  66 S15G22    29.69F HX  95
*WHARTON       SUNNY     87  70  56 SE18G26   29.65F HX  92
*COLUMBUS      FAIR      87  72  60 S20G25    29.64F HX  94
*EAGLE LAKE    CLEAR     89  74  60 S22G31    29.64F HX  97
$$

TXZ214>216-236>238-282000-
THE UPPER TEXAS COAST

CITY           SKY/WX    TMP DP  RH WIND       PRES   REMARKS
*ORANGE        CLOUDY    84  76  77 S15       29.77S HX  92
PORT ARTHUR    CLOUDY    86  75  69 S17G23    29.73F HX  95
GALVESTON      CLOUDY    83  77  82 E10       29.72S HAZE    HX  92
ANGLETON       PTSUNNY   87  76  69 S18       29.69F HX  97
*BAY CITY      PTSUNNY   86  75  71 S14       29.67F HAZE    HX  95
PALACIOS       MOSUNNY   85  74  69 SE21      29.64F HX  92
$$

TXZ229>234-239>247-282000-
TEXAS COASTAL BEND AND RIO GRANDE PLAINS

CITY           SKY/WX    TMP DP  RH WIND       PRES   REMARKS
VICTORIA       SUNNY     89  73  59 SE22G30   29.60F HX  97
*BEEVILLE      SUNNY     92  74  54 S16G24    29.57F HX 101
ROCKPORT       PTSUNNY   86  74  67 S15G24    29.59F HX  94
*PORT ARANSAS  CLOUDY    83  75  76 S16G22    29.59F HAZE    HX  90
*PORT LAVACA   SUNNY     86  76  73 S18G26    29.63S HX  96
*INGLESIDE     SUNNY     87  75  68 SE22G33   29.58F HAZE    HX  96
CORPUS CHRISTI PTSUNNY   91  74  57 SE24      29.56F HX 100
CORPUS NAS     MOSUNNY   88  76  67 S25G33    29.58F HAZE    HX  99
*ROBSTOWN      SUNNY     94  74  51 S16       29.55F HX 104
ALICE          SUNNY    100  61  27 S14G26    29.53F HX 101
KINGSVILLE NAS PTSUNNY   99  71  40 SE18      29.53F HX 107
COTULLA        SUNNY     91  65  41 VRB5      29.56F HX  93
*FAITH RANCH   SUNNY     90  68  48 VRB5      29.57F HX  93
LAREDO         SUNNY     94  69  44 S6        29.54F HX  99
$$

TXZ248>255-282000-
DEEP SOUTH TEXAS

CITY           SKY/WX    TMP DP  RH WIND       PRES   REMARKS
BROWNSVILLE    SUNNY     94  71  47 S25G37    29.57F HX 101
PORT ISABEL    PTSUNNY   93  72  50 S26G35    29.57F HAZE    HX 101
*SOUTH PADRE   NOT AVBL
HARLINGEN      SUNNY     97  68  38 S26G40    29.54F HX 102
*HEBBRONVILLE  SUNNY     93  61  34 S15       29.55F HX  93
MCALLEN        SUNNY    100  66  32 SE22G30   29.53F HX 104
*WESLACO       SUNNY     95  69  42 S17G31    29.54F HX 100
FALFURRIAS     SUNNY     99  62  29 S16G22    29.52F HX 100
EDINBURG       SUNNY     99  64  31 S16G25    29.54F HX 101
*ZAPATA        SUNNY     97  61  30 SE7       29.52F HX  97
$$

TXZ213>215-236>238-242>244-246-247-251-254-255-282000-
CMAN STATIONS

STATION/POSITION TIME  TEMP    WIND        PRES    WAVE
                       AIR SEA DIR/SP/G            HT/PER
                 (UTC) (F)     (DEG/KT/KT) (MB)    (FT/S)
SABINE PASS      1848   78 77  140/ 13/ 16 1008.6
SEA RIM ST PARK  1800   79     140/  9/ 12 1007.8
NORTH JETTY/GLS  1848          110/  7/  9   N/A
EAGLE POINT      1836   78 75  150/ 10/ 11 1006.0
MORGANS POINT    1848   80 75  120/  9/ 15 1005.9
MISSION/ARANSAS  1800   79                 1003.0
PORT O`CONNOR    1836   78     130/ 14/ 17 1003.1
PORT ARANSAS     1800   78 78  150/ 15/ 19 1003.1
MALAQUITE BEACH  1836   78 78  130/ 20/ 24 1002.3
BAFFIN BAY       1836   81 82  110/ 19/ 25 1001.4
PORT ISABEL      1836   84 80  160/ 20/ 26 1001.9
$$

GMZ080-GMZ150>470-282000-
OFFSHORE BUOY REPORTS

STATION/POSITION TIME  TEMP    WIND        PRES    WAVE
                       AIR SEA DIR/SP/G            HT/PER
                 (UTC) (F)     (DEG/KT/KT) (MB)    (FT/S)
20 E GALVESTON   1850   77 76  140/ 10/ 14 1005.8    4/ 7
90 E PT ARANSAS  1850   78 77  140/ 17/ 21 1003.6    6/ 6
35 NE PT MANSFLD 1850   78     170/ 16/ 19 1001.5    6/ 7
200 E PT ISABEL  1850   80 79  150/ 19/ 23 1005.9    6/ 7
$$




USA.gov is the U.S. government's official web portal to all federal, state and local government web resources and services.